When you browse on this site, cookies collect data to enhance your experience and personalize the content and advertising you see.
Visit our Privacy Policy to learn more. By continuing to use the site, you agree to this use of cookies and data.
  • In Lithuania
  • List of Countries
  • For 7 days
  • Water Temperature
  • Satellite Maps
  • Weather Map
  • Weather Widgets
  • user-avatar
    Login

    Hourly Weather Myzovka

    Today, 19 March, Tuesday

    Time Temperature Precipitation Wind Pressure Humidity
    00:00 -2°C° 0 mm 6 mps 745 mmHg 93%
    01:00 -1°C° 0 mm 6 mps 745 mmHg 90%
    02:00 -1°C° 0 mm 6 mps 745 mmHg 87%
    03:00 -1°C° 0 mm 6 mps 745 mmHg 87%
    04:00 -1°C° 0 mm 6 mps 745 mmHg 87%
    05:00 -1°C° 0 mm 6 mps 744 mmHg 87%
    06:00 -1°C° 0 mm 6 mps 745 mmHg 89%
    07:00 -1°C° 0 mm 6 mps 745 mmHg 91%
    08:00 -1°C° 0 mm 6 mps 745 mmHg 93%
    09:00 -1°C° 0 mm 6 mps 745 mmHg 95%
    10:00 -1°C° 0 mm 6 mps 745 mmHg 97%
    11:00 -1°C° 0 mm 6 mps 746 mmHg 99%
    12:00 0°C° 0.1 mm 5 mps 746 mmHg 99%
    13:00 0°C° 0.1 mm 5 mps 746 mmHg 99%
    14:00 +1°C° 0.1 mm 5 mps 746 mmHg 99%
    15:00 0°C° 0.5 mm 4 mps 746 mmHg 99%
    16:00 0°C° 0.5 mm 4 mps 746 mmHg 99%
    17:00 0°C° 0.5 mm 4 mps 746 mmHg 98%
    18:00 0°C° 0 mm 4 mps 746 mmHg 98%
    19:00 +1°C° 0 mm 3 mps 747 mmHg 98%
    20:00 0°C° 0 mm 3 mps 747 mmHg 98%
    21:00 0°C° 0.2 mm 3 mps 747 mmHg 98%
    22:00 0°C° 0.2 mm 3 mps 747 mmHg 98%
    23:00 0°C° 0.2 mm 3 mps 747 mmHg 98%

    Tomorrow, 20 March, Wednesday

    Time Temperature Precipitation Wind Pressure Humidity
    00:00 0°C° 0.1 mm 3 mps 747 mmHg 98%
    01:00 +1°C° 0.1 mm 2 mps 747 mmHg 97%
    02:00 +1°C° 0.1 mm 2 mps 747 mmHg 97%
    03:00 +1°C° 0 mm 2 mps 747 mmHg 96%
    04:00 +1°C° 0 mm 2 mps 747 mmHg 95%
    05:00 -1°C° 0 mm 2 mps 747 mmHg 93%
    06:00 +1°C° 0 mm 2 mps 747 mmHg 94%
    07:00 +1°C° 0 mm 2 mps 748 mmHg 95%
    08:00 +1°C° 0 mm 2 mps 748 mmHg 96%
    09:00 +1°C° 0 mm 3 mps 748 mmHg 94%
    10:00 +1°C° 0 mm 3 mps 748 mmHg 92%
    11:00 +2°C° 0 mm 3 mps 748 mmHg 90%
    12:00 +2°C° 0 mm 3 mps 748 mmHg 87%
    13:00 +2°C° 0 mm 3 mps 748 mmHg 84%
    14:00 +3°C° 0 mm 4 mps 748 mmHg 80%
    15:00 +2°C° 0 mm 3 mps 748 mmHg 81%
    16:00 +2°C° 0 mm 3 mps 748 mmHg 82%
    17:00 +1°C° 0 mm 3 mps 748 mmHg 83%
    18:00 0°C° 0 mm 3 mps 748 mmHg 85%
    19:00 0°C° 0 mm 3 mps 748 mmHg 86%
    20:00 -1°C° 0 mm 3 mps 748 mmHg 87%
    21:00 -1°C° 0 mm 3 mps 748 mmHg 86%
    22:00 -1°C° 0 mm 3 mps 748 mmHg 85%
    23:00 -1°C° 0 mm 3 mps 748 mmHg 84%

    Day after tomorrow, 21 March, Thursday

    Time Temperature Precipitation Wind Pressure Humidity
    00:00 -1°C° 0 mm 3 mps 748 mmHg 84%
    01:00 -1°C° 0 mm 3 mps 747 mmHg 83%
    02:00 -1°C° 0 mm 3 mps 747 mmHg 83%
    03:00 -1°C° 0 mm 3 mps 746 mmHg 84%
    04:00 -2°C° 0 mm 3 mps 746 mmHg 84%
    05:00 -3°C° 0 mm 4 mps 745 mmHg 85%
    06:00 -3°C° 0.2 mm 4 mps 745 mmHg 86%
    07:00 -2°C° 0.2 mm 4 mps 745 mmHg 87%
    08:00 -2°C° 0.2 mm 5 mps 744 mmHg 89%
    09:00 -2°C° 0.2 mm 4 mps 744 mmHg 88%
    10:00 -1°C° 0.2 mm 4 mps 744 mmHg 88%
    11:00 +1°C° 0.2 mm 3 mps 744 mmHg 88%
    12:00 +1°C° 0.1 mm 3 mps 744 mmHg 88%
    13:00 +1°C° 0.1 mm 3 mps 744 mmHg 87%
    14:00 +2°C° 0.1 mm 3 mps 744 mmHg 87%
    15:00 0°C° 0.1 mm 4 mps 744 mmHg 87%
    16:00 0°C° 0.1 mm 4 mps 745 mmHg 87%
    17:00 0°C° 0.1 mm 4 mps 745 mmHg 86%
    18:00 -1°C° 0 mm 4 mps 745 mmHg 87%
    19:00 -1°C° 0 mm 4 mps 746 mmHg 88%
    20:00 -1°C° 0 mm 3 mps 746 mmHg 89%
    21:00 -1°C° 0 mm 3 mps 746 mmHg 91%
    22:00 -2°C° 0 mm 3 mps 747 mmHg 92%
    23:00 -2°C° 0 mm 3 mps 747 mmHg 93%

    22 March, Friday

    Time Temperature Precipitation Wind Pressure Humidity
    00:00 -2°C° 0 mm 3 mps 747 mmHg 94%
    01:00 -2°C° 0 mm 2 mps 747 mmHg 94%
    02:00 -3°C° 0 mm 2 mps 747 mmHg 94%
    03:00 -3°C° 0 mm 2 mps 747 mmHg 94%
    04:00 -3°C° 0 mm 2 mps 747 mmHg 94%
    05:00 -3°C° 0 mm 2 mps 747 mmHg 94%
    06:00 -2°C° 0 mm 2 mps 747 mmHg 90%
    07:00 -1°C° 0 mm 2 mps 747 mmHg 87%
    08:00 -1°C° 0 mm 2 mps 747 mmHg 84%
    09:00 0°C° 0 mm 3 mps 747 mmHg 81%
    10:00 +2°C° 0 mm 3 mps 747 mmHg 77%
    11:00 +3°C° 0 mm 4 mps 746 mmHg 74%
    12:00 +3°C° 0 mm 4 mps 746 mmHg 74%
    13:00 +3°C° 0 mm 5 mps 745 mmHg 74%
    14:00 +5°C° 0 mm 5 mps 745 mmHg 74%
    15:00 +3°C° 0 mm 5 mps 744 mmHg 79%
    16:00 +2°C° 0 mm 5 mps 743 mmHg 84%
    17:00 +2°C° 0 mm 5 mps 743 mmHg 90%
    18:00 +2°C° 0.1 mm 6 mps 742 mmHg 91%
    19:00 +2°C° 0.1 mm 6 mps 742 mmHg 93%
    20:00 +2°C° 0.1 mm 6 mps 741 mmHg 94%
    21:00 +2°C° 0.1 mm 6 mps 741 mmHg 93%
    22:00 +3°C° 0.1 mm 7 mps 740 mmHg 93%
    23:00 +3°C° 0.1 mm 7 mps 740 mmHg 92%

    23 March, Saturday

    Time Temperature Precipitation Wind Pressure Humidity
    00:00 +2°C° 0.1 mm 6 mps 740 mmHg 88%
    01:00 +1°C° 0.1 mm 6 mps 740 mmHg 84%
    02:00 -2°C° 0.1 mm 6 mps 740 mmHg 79%
    03:00 -2°C° 0 mm 6 mps 740 mmHg 79%
    04:00 -3°C° 0 mm 6 mps 740 mmHg 79%
    05:00 -3°C° 0 mm 7 mps 740 mmHg 79%
    06:00 -3°C° 0 mm 7 mps 741 mmHg 76%
    07:00 -2°C° 0 mm 8 mps 741 mmHg 73%
    08:00 -2°C° 0 mm 8 mps 741 mmHg 70%
    09:00 -1°C° 0 mm 8 mps 741 mmHg 69%
    10:00 -1°C° 0 mm 8 mps 741 mmHg 67%
    11:00 -1°C° 0 mm 7 mps 741 mmHg 65%
    12:00 0°C° 0 mm 7 mps 741 mmHg 65%
    13:00 0°C° 0 mm 7 mps 741 mmHg 65%
    14:00 +2°C° 0 mm 6 mps 740 mmHg 64%
    15:00 +2°C° 0 mm 5 mps 740 mmHg 66%
    16:00 +1°C° 0 mm 5 mps 740 mmHg 69%
    17:00 +1°C° 0 mm 4 mps 740 mmHg 71%
    18:00 0°C° 0.1 mm 4 mps 739 mmHg 75%
    19:00 0°C° 0.1 mm 4 mps 739 mmHg 79%
    20:00 -1°C° 0.1 mm 4 mps 739 mmHg 83%
    21:00 -1°C° 0.1 mm 4 mps 738 mmHg 85%
    22:00 0°C° 0.1 mm 3 mps 738 mmHg 86%
    23:00 0°C° 0.1 mm 3 mps 738 mmHg 88%

    24 March, Sunday

    Time Temperature Precipitation Wind Pressure Humidity
    00:00 0°C° 0.1 mm 3 mps 738 mmHg 90%
    01:00 +1°C° 0.1 mm 3 mps 738 mmHg 92%
    02:00 0°C° 0.1 mm 4 mps 738 mmHg 94%
    03:00 0°C° 0 mm 4 mps 738 mmHg 94%
    04:00 -1°C° 0 mm 4 mps 738 mmHg 94%
    05:00 -1°C° 0 mm 4 mps 739 mmHg 94%
    06:00 -1°C° 0 mm 4 mps 739 mmHg 88%
    07:00 0°C° 0 mm 5 mps 740 mmHg 83%
    08:00 0°C° 0 mm 5 mps 740 mmHg 78%
    09:00 0°C° 0 mm 5 mps 741 mmHg 75%
    10:00 +1°C° 0 mm 5 mps 741 mmHg 71%
    11:00 +1°C° 0 mm 5 mps 741 mmHg 68%
    12:00 +1°C° 0 mm 5 mps 741 mmHg 67%
    13:00 +1°C° 0 mm 5 mps 741 mmHg 67%
    14:00 +2°C° 0 mm 5 mps 740 mmHg 66%
    15:00 +3°C° 0 mm 4 mps 740 mmHg 67%
    16:00 +1°C° 0 mm 4 mps 740 mmHg 68%
    17:00 +2°C° 0 mm 3 mps 740 mmHg 70%
    18:00 +2°C° 0 mm 2 mps 740 mmHg 72%
    19:00 +2°C° 0 mm 2 mps 739 mmHg 75%
    20:00 +2°C° 0 mm 1 mps 739 mmHg 77%
    21:00 +1°C° 0 mm 2 mps 738 mmHg 77%
    22:00 +1°C° 0 mm 2 mps 738 mmHg 78%
    23:00 0°C° 0 mm 3 mps 737 mmHg 79%
    Show more